Location: Township of Marena
(38.1747°N, 99.6798°W)
Time: 03:40:44
(UTC+00:00)

DELTA 2 R/B (1) - Pass Details

Date: 26 October 2020
Orbit: 790 x 803 km, 39.6° (Epoch: 24 November)

Event Time Altitude Azimuth Distance (km) Brightness Sun altitude
Exits shadow 10:24:53 57° 108° (ESE) 933 4.0 -30.8°
Drops below altitude 10° 10:29:18 10° 105° (ESE) 2,368 6.8 -30.0°
Sets 10:31:47 0° 105° (ESE) 3,298 7.8 -29.5°
